Girona, Spain

10:18 PM CEST on July 21, 2017 (GMT +0200)
Girona

Weather History for LEGE - March, 2013

Change the Weather History Date:

Monday, March 4, 2013

  Actual Average Record
Temperature  
Mean Temperature 46 °F -  
Max Temperature 59 °F 63 °F 77 °F (1997)
Min Temperature 33 °F 41 °F 30 °F (2005)
Degree Days  
Heating Degree Days 19    
Moisture  
Dew Point 43 °F    
Average Humidity 89    
Maximum Humidity 100    
Minimum Humidity 58    
Precipitation  
Precipitation 0.02 in 0.07 in - ()
Sea Level Pressure  
Sea Level Pressure 29.93 in    
Wind  
Wind Speed 2 mph ()    
Max Wind Speed 9 mph    
Max Gust Speed -    
Visibility 5.9 miles    
Events Rain    
Averages and records for this station are not official NWS values.
T = Trace of Precipitation, MM = Missing Value Source: Averaged Metar Reports

Daily Weather History Graph

Daily Weather History Graph

Search for Another Location

Airport or City:

Trip Planner

Search our weather history database for the weather conditions in past years. The results will help you decide how hot, cold, wet, or windy it might be!

Date:

Astronomy

Mar. 04, 2013 Rise Set
Actual Time 7:19 AM CET 6:42 PM CET
Civil Twilight 6:51 AM CET 7:10 PM CET
Nautical Twilight 6:18 AM CET 7:42 PM CET
Astronomical Twilight 5:46 AM CET 8:15 PM CET
Moon 1:15 AM CET (3/4) 11:06 AM CET (3/4)
Length of Visible Light 12h 19m
Length of Day
11h 23m
Waning Gibbous, 55% of the Moon is Illuminated
Mar 4
Waning Gibbous
Mar 4
Last Quarter
Mar 11
New
Mar 19
First Quarter
Mar 27
Full

Hourly Weather History & Observations

Time (CET) Temp. Windchill Dew Point Humidity Pressure Visibility Wind Dir Wind Speed Gust Speed Precip Events Conditions
12:00 AM 41.0 °F - 35.6 °F 81% 29.98 in - Calm Calm - N/A   Clear
1:00 AM 41 °F - 37 °F 80% 29.99 in - Calm Calm - -  
1:00 AM 39.2 °F - 35.6 °F 87% 29.98 in 6.2 mi Calm Calm - N/A   Partly Cloudy
1:30 AM 37.4 °F - 35.6 °F 93% 29.98 in 6.2 mi Calm Calm - N/A   Partly Cloudy
2:00 AM 37.4 °F - 35.6 °F 93% 29.98 in 6.2 mi Calm Calm - N/A   Partly Cloudy
2:30 AM 39.2 °F 37.0 °F 39.2 °F 100% 29.98 in 6.2 mi West 3.5 mph - N/A   Partly Cloudy
3:00 AM 37.4 °F - 37.4 °F 100% 29.98 in 6.2 mi NE 1.2 mph - N/A   Partly Cloudy
3:30 AM 37.4 °F - 37.4 °F 100% 29.95 in 6.2 mi NNE 2.3 mph - N/A   Partly Cloudy
4:00 AM 35.6 °F - 35.6 °F 100% 29.95 in 6.2 mi Calm Calm - N/A   Partly Cloudy
4:30 AM 35.6 °F - 35.6 °F 100% 29.95 in 6.2 mi Calm Calm - N/A   Partly Cloudy
5:00 AM 35.6 °F - 35.6 °F 100% 29.95 in 6.2 mi Calm Calm - N/A   Partly Cloudy
5:30 AM 33.8 °F - 33.8 °F 100% 29.95 in 6.2 mi Calm Calm - N/A   Partly Cloudy
6:00 AM 35.6 °F - 35.6 °F 100% 29.95 in 6.2 mi Calm Calm - N/A   Partly Cloudy
6:30 AM 33.8 °F - 33.8 °F 100% 29.95 in 6.2 mi Calm Calm - N/A   Partly Cloudy
7:00 AM 36 °F - 34 °F 87% 29.98 in - NE 1.2 mph - -  
7:00 AM 33.8 °F - 33.8 °F 100% 29.95 in 6.2 mi Variable 1.2 mph - N/A   Partly Cloudy
7:30 AM 35.6 °F - 35.6 °F 100% 29.98 in 6.2 mi Variable 1.2 mph - N/A   Partly Cloudy
8:00 AM 35.6 °F - 35.6 °F 100% 29.98 in 6.2 mi Calm Calm - N/A   Partly Cloudy
8:30 AM 35.6 °F - 35.6 °F 100% 29.98 in 6.2 mi ENE 1.2 mph - N/A   Partly Cloudy
9:30 AM 42.8 °F - 41.0 °F 93% 29.98 in 6.2 mi Calm Calm - N/A   Scattered Clouds
10:00 AM 46.4 °F - 44.6 °F 93% 29.98 in 6.2 mi Variable 1.2 mph - N/A   Scattered Clouds
10:30 AM 51.8 °F - 44.6 °F 76% 29.98 in 6.2 mi Variable 2.3 mph - N/A   Partly Cloudy
11:00 AM 53.6 °F - 44.6 °F 72% 29.98 in 6.2 mi Calm Calm - N/A   Scattered Clouds
11:30 AM 53.6 °F - 44.6 °F 72% 29.95 in 6.2 mi NE 1.2 mph - N/A   Scattered Clouds
12:00 PM 53.6 °F - 44.6 °F 72% 29.95 in 6.2 mi ENE 3.5 mph - N/A   Scattered Clouds
12:30 PM 53.6 °F - 44.6 °F 72% 29.95 in 6.2 mi Calm Calm - N/A   Mostly Cloudy
1:00 PM 58 °F - 47 °F 58% 29.92 in 9 mi SE 8.1 mph - -   Mostly Cloudy
1:00 PM 55.4 °F - 44.6 °F 67% 29.95 in 6.2 mi ESE 5.8 mph - N/A   Mostly Cloudy
1:30 PM 55.4 °F - 46.4 °F 72% 29.92 in 6.2 mi SE 8.1 mph - N/A   Mostly Cloudy
2:00 PM 55.4 °F - 44.6 °F 67% 29.92 in 6.2 mi ESE 5.8 mph - N/A   Mostly Cloudy
2:30 PM 53.6 °F - 44.6 °F 72% 29.89 in 6.2 mi ESE 3.5 mph - N/A   Mostly Cloudy
3:00 PM 53.6 °F - 46.4 °F 77% 29.89 in 6.2 mi ESE 4.6 mph - N/A   Mostly Cloudy
3:30 PM 53.6 °F - 46.4 °F 77% 29.89 in 3.7 mi ESE 3.5 mph - N/A   Drizzle
4:00 PM 51.8 °F - 48.2 °F 88% 29.89 in 3.7 mi ESE 3.5 mph - N/A   Drizzle
4:30 PM 51.8 °F - 51.8 °F 100% 29.89 in 5.0 mi Variable 2.3 mph - N/A   Light Drizzle
5:00 PM 51.8 °F - 51.8 °F 100% 29.89 in 5.0 mi ESE 4.6 mph - N/A   Light Drizzle
5:30 PM 51.8 °F - 51.8 °F 100% 29.86 in 5.0 mi ESE 5.8 mph - N/A   Drizzle
6:00 PM 51.8 °F - 51.8 °F 100% 29.86 in 3.1 mi ESE 6.9 mph - N/A   Overcast
6:30 PM 51.8 °F - 51.8 °F 100% 29.86 in 5.0 mi ESE 6.9 mph - N/A   Overcast
7:00 PM 54 °F - 50 °F 82% 29.87 in 6 mi ESE 6.9 mph - -   Mist
7:00 PM 51.8 °F - 50.0 °F 94% 29.89 in 5.0 mi ESE 5.8 mph - N/A   Overcast
7:30 PM 51.8 °F - 50.0 °F 94% 29.89 in 5.6 mi ESE 5.8 mph - N/A   Overcast
8:00 PM 51.8 °F - 50.0 °F 94% 29.89 in 5.6 mi Variable 2.3 mph - N/A   Overcast
8:30 PM 51.8 °F - 50.0 °F 94% 29.89 in 6.2 mi ESE 3.5 mph - N/A   Overcast
9:00 PM 53.6 °F - 50.0 °F 88% 29.89 in 6.2 mi ESE 9.2 mph - N/A   Overcast
9:30 PM 51.8 °F - 48.2 °F 88% 29.89 in 6.2 mi SE 8.1 mph - N/A   Light Drizzle
10:00 PM 51.8 °F - 48.2 °F 88% 29.89 in 6.2 mi ESE 4.6 mph - N/A   Light Drizzle
10:30 PM 51.8 °F - 48.2 °F 88% 29.86 in 6.2 mi ESE 5.8 mph - N/A   Light Drizzle
11:00 PM 51.8 °F - 48.2 °F 88% 29.86 in 6.2 mi ESE 6.9 mph - N/A   Light Drizzle
11:30 PM 51.8 °F - 48.2 °F 88% 29.86 in 6.2 mi ESE 5.8 mph - N/A Rain Light Rain